Regional Weather Roundup
Issued by NWS

Home | Current Version | Previous Version | Graphics & Text | Print | Product List | Glossary On
Versions: 1 2 3 4 5 6 7 8 9 10 11 12 13 14 15 16 17 18 19 20 21 22 23 24 25 26 27 28 29 30 31 32 33 34 35 36 37 38 39 40 41 42 43 44 45 46 47 48 49 50
000
ASUS43 KBIS 291010
RWRND

NORTH DAKOTA REGIONAL WEATHER ROUNDUP
NATIONAL WEATHER SERVICE BISMARCK ND
500 AM CDT WED JUL 29 2015

NOTE: "FAIR" INDICATES FEW OR NO CLOUDS BELOW 12,000 FEET WITH NO
SIGNIFICANT WEATHER AND/OR OBSTRUCTIONS TO VISIBILITY.


NDZ001>003-009>011-017-291100-
NORTHWEST NORTH DAKOTA

CITY           SKY/WX    TMP DP  RH WIND       PRES   REMARKS
WILLISTON      MOCLDY    58  50  75 W17       29.95R
MINOT          MOCLDY    63  51  65 W17       29.81R
MINOT AFB      CLOUDY    63  55  73 W21G32    29.79R
$$

NDZ018>021-031>035-040>046-291100-
SOUTHWEST NORTH DAKOTA

CITY           SKY/WX    TMP DP  RH WIND       PRES   REMARKS
BISMARCK       CLEAR     62  47  57 W18       29.94R
DICKINSON      PTCLDY    57  44  62 W16       30.01R
GARRISON         N/A     58  51  78 W16       29.88R
HETTINGER ARPT CLEAR     54  40  59 W13       30.09R
$$

NDZ004>008-012>016-024-026-027-054-291100-
NORTHEAST NORTH DAKOTA

CITY           SKY/WX    TMP DP  RH WIND       PRES   REMARKS
GRAND FORKS    CLOUDY    65  54  67 W26G35    29.60R
GRND FRKS AFB  CLOUDY    65  55  69 W23G38    29.61R
DEVILS LAKE    CLOUDY    63  50  63 W37G54    29.65R
$$

NDZ022-023-025-028>030-036>039-047>053-291100-
SOUTHEAST NORTH DAKOTA

CITY           SKY/WX    TMP DP  RH WIND       PRES   REMARKS
FARGO          MOCLDY    64  50  60 SW22G31   29.74R
JAMESTOWN      CLEAR     62  49  62 W24G32    29.80R
$$




USA.gov is the U.S. government's official web portal to all federal, state and local government web resources and services.